Regional Weather Roundup
Issued by NWS Burlington, VT

Home | Current Version | Previous Version | Text Only | Print | Product List | Glossary On
Versions: 1 2 3 4 5 6 7 8 9 10 11 12 13 14 15 16 17 18 19 20 21 22 23 24 25 26 27 28 29 30 31 32 33 34 35 36 37 38 39 40 41 42 43 44 45 46 47 48 49 50
000
ASUS41 KBTV 281730
RWRBTV
VERMONT REGIONAL WEATHER ROUNDUP
NATIONAL WEATHER SERVICE BURLINGTON VT
100 PM EDT TUE JUL 28 2015

NOTE: "FAIR" INDICATES FEW OR NO CLOUDS BELOW 12,000 FEET WITH NO
SIGNIFICANT WEATHER AND/OR OBSTRUCTIONS TO VISIBILITY.

* THESE REPORTS ARE NOT UNDER NWS QUALITY CONTROL AND/OR DO NOT
  REPORT WEATHER SUCH AS PRECIPITATION AND FOG.

VTZ001>019-281800-
_____VERMONT_____


CITY           SKY/WX    TMP DP  RH WIND       PRES   REMARKS
BURLINGTON     MOSUNNY   83  66  56 S6        29.96F
MONTPELIER     MOSUNNY   81  64  56 N6        30.04F
MORRISVILLE    MOSUNNY   83  67  58 CALM      29.99F
ST. JOHNSBURY*   N/A     82  64  54 MISG      29.96F
LYNDONVILLE*   FAIR      80  66  61 E5        30.00F
MIDDLEBURY*    FAIR      85  61  45 N5        29.97F
RUTLAND*       MOSUNNY   81  63  54 NW7       29.98F
SPRINGFIELD    PTSUNNY   87  64  46 NW5       29.96F
HIGHGATE*      FAIR      81  68  64 W3        29.95F
NEWPORT*       FAIR      81  62  51 N7        29.98F
BENNINGTON     SUNNY     83  66  56 W7        29.99F
SUTTON*          N/A     81 N/A N/A MISG        N/A
MT. MANSFIELD*   N/A     70 N/A N/A NW7         N/A

_____LAKE CHAMPLAIN_____


CITY           SKY/WX    TMP DP  RH WIND       PRES   REMARKS
COLCHESTER RF*   N/A     73  70  88 SW8         N/A
DIAMOND ISL*     N/A     77  70  78 SW3         N/A

$$

NYZ007-026>031-035-052-083-281800-
_____NORTHERN NEW YORK_____


CITY           SKY/WX    TMP DP  RH WIND       PRES   REMARKS
PLATTSBURGH    MOSUNNY   79  68  69 SE8       29.96F
SARANAC LAKE   MOSUNNY   82  57  42 VRB6      30.01F
MASSENA        SUNNY     86  67  52 W9        29.95F
OGDENSBURG*    SUNNY     88  68  51 SW5       29.96F HX  91
POTSDAM*       SUNNY     84  70  61 W5        29.97S
WATERTOWN      SUNNY     81  68  64 W13       29.99F
FT DRUM        MOSUNNY   85  66  53 VRB5      29.99F
ALBANY         PTSUNNY   89  65  44 NW9       29.97F HX  91
GLENS FALLS    SUNNY     85  69  58 CALM      29.96F

$$
NHZ002-005-011-281800-
_____NEW HAMPSHIRE_____


CITY           SKY/WX    TMP DP  RH WIND       PRES   REMARKS
LEBANON        MOSUNNY   87  66  49 N3        29.96F
KEENE          MOSUNNY   86  64  48 NE7       29.95F
MT WASHINGTON  MOSUNNY   59  45  58 N12G18      N/A
PLYMOUTH       FAIR      83  68  60 CALM      29.95F
WHITEFIELD     SUNNY     81  64  56 CALM      29.99F

$$

_____REGIONAL QUEBEC LOCATIONS_____


CITY           SKY/WX    TMP DP  RH WIND       PRES   REMARKS
MONTREAL       PTSUNNY   81  70  69 SW10      29.94F
QUEBEC CITY    MOSUNNY   79  68  69 SW13G20   29.89F
SHERBROOKE     PTSUNNY   81  63  54 W9        29.95F

_____REGIONAL ONTARIO LOCATIONS_____


CITY           SKY/WX    TMP DP  RH WIND       PRES   REMARKS
OTTAWA         MOSUNNY   88  68  51 SW8       29.95F HX  91

______KEY______
VSB  - VISIBILITY IN MILES
WCI  - WIND CHILL INDEX
HX   - HEAT INDEX
$$
NNNN


USA.gov is the U.S. government's official web portal to all federal, state and local government web resources and services.